Simultaneous Nadir Overpasses (SNOs) Predictions

Prediction of SNOs between FY3D and NOAA-20 Satellite Orbit:

Table of predicted SNOs for the next 14.0 days since TLE Epoch: 4/22/2023
Index Date (FY3D) Time (FY3D) Lat,Lon (FY3D) SZA (FY3D ) Date (NOAA-20) Time (NOAA-20) Lat,Lon (NOAA-20) SZA (NOAA-20 ) Distance(km) Time Diff (sec)
1 04/25/2023 04:04:25 -81.19,-121.03 107.47 04/25/2023 04:05:41 -81.19,-121.18 107.49 2.60 76
2 04/25/2023 04:55:11 81.19, 46.16 72.54 04/25/2023 04:56:26 81.19, 46.14 72.51 0.60 75
3 04/25/2023 05:45:56 -81.19,-146.24 107.51 04/25/2023 05:47:10 -81.18,-146.20 107.56 0.86 74
4 04/25/2023 06:36:42 81.19, 20.95 72.50 04/25/2023 06:37:55 81.18, 21.12 72.43 2.89 73
5 04/25/2023 07:27:28 -81.19,-171.83 107.51 04/25/2023 07:28:41 -81.19,-171.98 107.53 2.62 73
6 04/25/2023 08:18:13 81.19, -4.26 72.45 04/25/2023 08:19:25 81.19, -4.28 72.41 0.68 72
7 04/25/2023 09:08:59 -81.19, 162.96 107.55 04/25/2023 09:10:10 -81.19, 163.00 107.60 0.78 71
8 04/25/2023 09:59:45 81.19, -29.85 72.46 04/25/2023 10:00:55 81.19, -29.69 72.39 2.91 70
9 04/25/2023 10:50:31 -81.19, 137.36 107.55 04/25/2023 10:51:41 -81.20, 137.21 107.57 2.65 70
10 04/25/2023 11:41:16 81.19, -55.06 72.41 04/25/2023 11:42:25 81.19, -55.09 72.37 0.54 69
11 04/25/2023 12:32:02 -81.19, 112.16 107.59 04/25/2023 12:33:10 -81.19, 112.20 107.64 0.73 68
12 04/25/2023 13:22:48 81.19, -80.66 72.42 04/25/2023 13:23:55 81.19, -80.49 72.35 2.93 67
13 04/25/2023 14:13:33 -81.19, 86.95 107.64 04/25/2023 14:14:40 -81.19, 86.79 107.66 2.62 67
14 04/25/2023 15:04:19 81.19,-105.87 72.37 04/25/2023 15:05:25 81.19,-105.89 72.33 0.42 66
15 04/25/2023 15:55:05 -81.19, 61.35 107.64 04/25/2023 15:56:10 -81.19, 61.39 107.68 0.70 65
16 04/25/2023 16:45:51 81.19,-131.47 72.38 04/25/2023 16:46:55 81.19,-131.29 72.32 2.97 64
17 04/25/2023 17:36:36 -81.19, 36.14 107.68 04/25/2023 17:37:40 -81.19, 35.99 107.70 2.59 64
18 04/25/2023 18:27:22 81.19,-156.68 72.33 04/25/2023 18:28:25 81.19,-156.70 72.30 0.32 63
19 04/25/2023 19:18:08 -81.19, 10.55 107.68 04/25/2023 19:19:10 -81.19, 10.59 107.72 0.71 62
20 04/25/2023 20:08:54 81.19, 177.73 72.34 04/25/2023 20:09:55 81.19, 177.90 72.28 3.02 61
21 04/25/2023 20:59:39 -81.19, -14.66 107.72 04/25/2023 21:00:40 -81.19, -14.81 107.74 2.58 61
22 04/25/2023 21:50:25 81.19, 152.52 72.29 04/25/2023 21:51:25 81.19, 152.50 72.26 0.29 60
23 04/25/2023 22:41:11 -81.19, -40.26 107.72 04/25/2023 22:42:10 -81.19, -40.21 107.75 0.75 59
24 04/25/2023 23:31:57 81.19, 126.92 72.30 04/25/2023 23:32:55 81.19, 127.10 72.24 3.08 58
25 04/26/2023 00:22:42 -81.19, -65.46 107.76 04/26/2023 00:23:40 -81.19, -65.62 107.77 2.57 58
26 04/26/2023 01:13:28 81.19, 101.71 72.25 04/26/2023 01:14:25 81.19, 101.70 72.22 0.34 57
27 04/26/2023 02:04:14 -81.19, -91.06 107.76 04/26/2023 02:05:10 -81.19, -91.02 107.79 0.82 56
28 04/26/2023 02:54:59 81.19, 76.50 72.20 04/26/2023 02:55:54 81.18, 76.68 72.15 3.12 55
29 04/26/2023 03:45:45 -81.19,-116.27 107.80 04/26/2023 03:46:40 -81.19,-116.42 107.81 2.57 55
30 04/26/2023 04:36:31 81.19, 50.90 72.21 04/26/2023 04:37:25 81.19, 50.89 72.18 0.46 54
31 04/26/2023 05:27:16 -81.19,-141.48 107.85 04/26/2023 05:28:09 -81.18,-141.44 107.89 0.90 53
32 04/26/2023 06:18:02 81.19, 25.69 72.16 04/26/2023 06:18:54 81.18, 25.87 72.11 3.14 52
33 04/26/2023 07:08:48 -81.19,-167.07 107.84 04/26/2023 07:09:40 -81.19,-167.22 107.85 2.58 52
34 04/26/2023 07:59:33 81.19, 0.48 72.12 04/26/2023 08:00:24 81.19, 0.47 72.09 0.55 51
35 04/26/2023 08:50:19 -81.19, 167.72 107.89 04/26/2023 08:51:09 -81.19, 167.76 107.92 0.83 50
36 04/26/2023 09:41:05 81.19, -25.12 72.12 04/26/2023 09:41:54 81.19, -24.93 72.07 3.17 49
37 04/26/2023 10:31:51 -81.19, 142.12 107.88 04/26/2023 10:32:40 -81.20, 141.97 107.89 2.60 49
38 04/26/2023 11:22:36 81.19, -50.33 72.08 04/26/2023 11:23:24 81.19, -50.33 72.05 0.38 48
39 04/26/2023 12:13:22 -81.19, 116.91 107.93 04/26/2023 12:14:09 -81.19, 116.95 107.96 0.78 47
40 04/26/2023 13:04:08 81.19, -75.92 72.08 04/26/2023 13:04:54 81.19, -75.74 72.03 3.20 46
41 04/26/2023 13:54:53 -81.19, 91.70 107.97 04/26/2023 13:55:39 -81.19, 91.55 107.98 2.56 46
42 04/26/2023 14:45:39 81.19,-101.13 72.04 04/26/2023 14:46:24 81.19,-101.14 72.01 0.21 45
43 04/26/2023 15:36:25 -81.19, 66.10 107.97 04/26/2023 15:37:09 -81.19, 66.15 108.00 0.76 44
44 04/26/2023 16:27:11 81.19,-126.73 72.05 04/26/2023 16:27:54 81.19,-126.54 71.99 3.25 43
45 04/26/2023 17:17:56 -81.19, 40.90 108.01 04/26/2023 17:18:39 -81.19, 40.75 108.02 2.53 43
46 04/26/2023 18:08:42 81.19,-151.94 72.00 04/26/2023 18:09:24 81.19,-151.95 71.98 0.05 42
47 04/26/2023 18:59:28 -81.19, 15.30 108.01 04/26/2023 19:00:09 -81.19, 15.34 108.04 0.78 41
48 04/26/2023 19:50:14 81.19,-177.54 72.01 04/26/2023 19:50:54 81.19,-177.35 71.96 3.31 40
49 04/26/2023 20:40:59 -81.19, -9.91 108.05 04/26/2023 20:41:39 -81.19, -10.06 108.06 2.50 40
50 04/26/2023 21:31:45 81.19, 157.25 71.96 04/26/2023 21:32:24 81.19, 157.25 71.94 0.13 39
51 04/26/2023 22:22:31 -81.19, -35.51 108.05 04/26/2023 22:23:09 -81.19, -35.46 108.07 0.83 38
52 04/26/2023 23:13:16 81.19, 132.04 71.91 04/26/2023 23:13:54 81.19, 131.85 71.92 3.26 38
53 04/27/2023 00:04:02 -81.19, -60.72 108.09 04/27/2023 00:04:39 -81.19, -60.86 108.09 2.49 37
54 04/27/2023 00:54:48 81.19, 106.44 71.92 04/27/2023 00:55:24 81.19, 106.44 71.90 0.29 36
55 04/27/2023 01:45:34 -81.19, -86.31 108.09 04/27/2023 01:46:09 -81.19, -86.26 108.11 0.90 35
56 04/27/2023 02:36:19 81.19, 81.23 71.88 04/27/2023 02:36:54 81.19, 81.04 71.88 3.22 35
57 04/27/2023 03:27:05 -81.19,-111.52 108.13 04/27/2023 03:27:39 -81.19,-111.67 108.13 2.48 34
58 04/27/2023 04:17:51 81.19, 55.63 71.88 04/27/2023 04:18:24 81.19, 55.64 71.86 0.46 33
59 04/27/2023 05:08:35 -81.19,-136.73 108.18 04/27/2023 05:09:07 -81.18,-136.69 108.20 0.97 32
60 04/27/2023 05:59:21 81.19, 30.42 71.84 04/27/2023 05:59:53 81.19, 30.23 71.85 3.18 32
61 04/27/2023 06:50:07 -81.19,-162.33 108.17 04/27/2023 06:50:38 -81.19,-162.47 108.17 2.48 31
62 04/27/2023 07:40:52 81.19, 5.21 71.79 04/27/2023 07:41:22 81.19, 5.21 71.77 0.50 30
63 04/27/2023 08:31:38 -81.19, 172.46 108.22 04/27/2023 08:32:07 -81.19, 172.51 108.24 0.91 29
64 04/27/2023 09:22:24 81.19, -20.39 71.80 04/27/2023 09:22:53 81.20, -20.57 71.81 3.15 29
65 04/27/2023 10:13:09 -81.19, 147.25 108.26 04/27/2023 10:13:37 -81.19, 147.10 108.26 2.49 28
66 04/27/2023 11:03:55 81.19, -45.60 71.75 04/27/2023 11:04:22 81.19, -45.59 71.73 0.37 27
67 04/27/2023 11:54:41 -81.19, 121.65 108.26 04/27/2023 11:55:07 -81.19, 121.70 108.28 0.88 26
68 04/27/2023 12:45:26 81.19, -70.81 71.71 04/27/2023 12:45:52 81.19, -70.99 71.72 3.11 26
69 04/27/2023 13:36:12 -81.19, 96.44 108.30 04/27/2023 13:36:37 -81.19, 96.30 108.30 2.44 25
70 04/27/2023 14:26:58 81.19, -96.41 71.71 04/27/2023 14:27:22 81.19, -96.40 71.70 0.29 24
71 04/27/2023 15:17:44 -81.19, 70.84 108.30 04/27/2023 15:18:07 -81.19, 70.90 108.32 0.88 23
72 04/27/2023 16:08:29 81.19,-121.62 71.67 04/27/2023 16:08:52 81.19,-121.80 71.68 3.04 23
73 04/27/2023 16:59:15 -81.19, 45.63 108.34 04/27/2023 16:59:37 -81.19, 45.49 108.33 2.40 22
74 04/27/2023 17:50:01 81.19,-147.22 71.68 04/27/2023 17:50:22 81.19,-147.20 71.66 0.31 21
75 04/27/2023 18:40:47 -81.19, 20.04 108.33 04/27/2023 18:41:07 -81.19, 20.09 108.35 0.91 20
76 04/27/2023 19:31:32 81.19,-172.43 71.63 04/27/2023 19:31:52 81.19,-172.61 71.64 2.97 20
77 04/27/2023 20:22:18 -81.19, -5.17 108.38 04/27/2023 20:22:37 -81.19, -5.31 108.37 2.37 19
78 04/27/2023 21:13:04 81.19, 161.97 71.64 04/27/2023 21:13:22 81.19, 161.99 71.62 0.41 18
79 04/27/2023 22:03:50 -81.19, -30.77 108.37 04/27/2023 22:04:07 -81.19, -30.72 108.39 0.97 17
80 04/27/2023 22:54:35 81.19, 136.76 71.59 04/27/2023 22:54:52 81.19, 136.58 71.61 2.91 17
81 04/27/2023 23:45:21 -81.19, -55.98 108.42 04/27/2023 23:45:37 -81.19, -56.12 108.41 2.35 16
82 04/28/2023 00:36:07 81.19, 111.16 71.60 04/28/2023 00:36:22 81.19, 111.18 71.59 0.55 15
83 04/28/2023 01:26:53 -81.19, -81.58 108.41 04/28/2023 01:27:07 -81.19, -81.52 108.43 1.05 14
84 04/28/2023 02:17:38 81.19, 85.94 71.55 04/28/2023 02:17:52 81.19, 85.78 71.57 2.86 14
85 04/28/2023 03:08:24 -81.19,-106.79 108.46 04/28/2023 03:08:37 -81.19,-106.93 108.44 2.34 13
86 04/28/2023 03:59:10 81.19, 60.34 71.56 04/28/2023 03:59:22 81.19, 60.37 71.55 0.70 12
87 04/28/2023 04:49:55 -81.19,-132.00 108.50 04/28/2023 04:50:06 -81.19,-131.95 108.52 1.08 11
88 04/28/2023 05:40:41 81.19, 35.13 71.52 04/28/2023 05:40:52 81.19, 34.97 71.53 2.82 11
89 04/28/2023 06:31:27 -81.19,-157.60 108.50 04/28/2023 06:31:37 -81.20,-157.73 108.48 2.34 10
90 04/28/2023 07:22:12 81.19, 9.92 71.47 04/28/2023 07:22:21 81.19, 9.95 71.46 0.65 9
91 04/28/2023 08:12:58 -81.19, 177.19 108.54 04/28/2023 08:13:06 -81.19, 177.25 108.55 1.04 8
92 04/28/2023 09:03:44 81.19, -15.68 71.48 04/28/2023 09:03:52 81.20, -15.84 71.50 2.79 8
93 04/28/2023 09:54:29 -81.19, 151.98 108.59 04/28/2023 09:54:36 -81.19, 151.84 108.57 2.32 7
94 04/28/2023 10:45:15 81.19, -40.89 71.43 04/28/2023 10:45:21 81.19, -40.86 71.42 0.62 6
95 04/28/2023 11:36:01 -81.19, 126.38 108.58 04/28/2023 11:36:06 -81.19, 126.44 108.59 1.04 5
96 04/28/2023 12:26:46 81.19, -66.10 71.39 04/28/2023 12:26:51 81.19, -66.26 71.41 2.72 5
97 04/28/2023 13:17:32 -81.19, 101.17 108.62 04/28/2023 13:17:36 -81.19, 101.04 108.61 2.27 4
98 04/28/2023 14:08:18 81.19, -91.70 71.39 04/28/2023 14:08:21 81.19, -91.67 71.39 0.64 3
99 04/28/2023 14:59:04 -81.19, 75.57 108.62 04/28/2023 14:59:06 -81.19, 75.63 108.63 1.06 2
100 04/28/2023 15:49:49 81.19,-116.92 71.35 04/28/2023 15:49:51 81.19,-117.07 71.37 2.64 2
101 04/28/2023 16:40:35 -81.19, 50.36 108.66 04/28/2023 16:40:36 -81.19, 50.23 108.64 2.22 1
102 04/28/2023 17:31:21 81.19,-142.52 71.36 04/28/2023 17:31:21 81.19,-142.47 71.35 0.71 0
103 04/28/2023 18:22:07 -81.19, 24.76 108.66 04/28/2023 18:22:06 -81.19, 24.83 108.66 1.10 1
104 04/28/2023 19:12:52 81.19,-167.73 71.31 04/28/2023 19:12:51 81.19,-167.88 71.33 2.57 1
105 04/28/2023 20:03:38 -81.19, -0.45 108.70 04/28/2023 20:03:36 -81.19, -0.58 108.68 2.18 2
106 04/28/2023 20:54:24 81.19, 166.67 71.32 04/28/2023 20:54:21 81.19, 166.72 71.32 0.82 3
107 04/28/2023 21:45:10 -81.19, -26.05 108.69 04/28/2023 21:45:06 -81.19, -25.98 108.70 1.17 4
108 04/28/2023 22:35:55 81.19, 141.46 71.27 04/28/2023 22:35:51 81.19, 141.31 71.30 2.51 4
109 04/28/2023 23:26:41 -81.19, -51.26 108.74 04/28/2023 23:26:36 -81.19, -51.39 108.72 2.16 5
110 04/29/2023 00:17:27 81.19, 115.86 71.28 04/29/2023 00:17:21 81.19, 115.91 71.28 0.95 6
111 04/29/2023 01:08:13 -81.19, -76.86 108.73 04/29/2023 01:08:06 -81.19, -76.79 108.73 1.26 7
112 04/29/2023 01:58:58 81.19, 90.65 71.24 04/29/2023 01:58:51 81.19, 90.50 71.26 2.46 7
113 04/29/2023 02:49:44 -81.19,-102.07 108.78 04/29/2023 02:49:36 -81.19,-102.19 108.75 2.15 8
114 04/29/2023 03:40:29 81.19, 65.43 71.19 04/29/2023 03:40:20 81.19, 65.48 71.19 0.99 9
115 04/29/2023 04:31:15 -81.19,-127.28 108.82 04/29/2023 04:31:05 -81.19,-127.22 108.83 1.24 10
116 04/29/2023 05:22:01 81.19, 39.83 71.20 04/29/2023 05:21:51 81.20, 39.70 71.23 2.42 10
117 04/29/2023 06:12:47 -81.19,-152.88 108.81 04/29/2023 06:12:36 -81.20,-153.00 108.79 2.15 11
118 04/29/2023 07:03:32 81.19, 14.62 71.16 04/29/2023 07:03:20 81.19, 14.68 71.15 0.99 12
119 04/29/2023 07:54:18 -81.19,-178.09 108.86 04/29/2023 07:54:05 -81.19,-178.02 108.86 1.23 13
120 04/29/2023 08:45:02 81.19, -10.59 71.11 04/29/2023 08:44:49 81.19, -10.73 71.14 2.36 13
121 04/29/2023 09:35:48 -81.19, 156.69 108.90 04/29/2023 09:35:34 -81.19, 156.57 108.88 2.09 14
122 04/29/2023 10:26:34 81.19, -36.19 71.12 04/29/2023 10:26:19 81.19, -36.13 71.12 1.02 15
123 04/29/2023 11:17:20 -81.19, 131.09 108.90 04/29/2023 11:17:04 -81.19, 131.17 108.90 1.25 16
124 04/29/2023 12:08:05 81.19, -61.41 71.07 04/29/2023 12:07:49 81.19, -61.54 71.10 2.27 16
125 04/29/2023 12:58:51 -81.19, 105.88 108.94 04/29/2023 12:58:34 -81.19, 105.76 108.91 2.03 17
126 04/29/2023 13:49:37 81.19, -87.01 71.08 04/29/2023 13:49:19 81.19, -86.94 71.08 1.09 18
127 04/29/2023 14:40:23 -81.19, 80.28 108.93 04/29/2023 14:40:04 -81.19, 80.36 108.93 1.29 19
128 04/29/2023 15:31:08 81.19,-112.22 71.04 04/29/2023 15:30:49 81.19,-112.35 71.06 2.18 19
129 04/29/2023 16:21:54 -81.19, 55.07 108.98 04/29/2023 16:21:34 -81.19, 54.95 108.95 1.98 20
130 04/29/2023 17:12:40 81.19,-137.82 71.04 04/29/2023 17:12:19 81.19,-137.75 71.05 1.18 21
131 04/29/2023 18:03:26 -81.19, 29.47 108.97 04/29/2023 18:03:04 -81.19, 29.55 108.97 1.36 22
132 04/29/2023 18:54:11 81.19,-163.03 71.00 04/29/2023 18:53:49 81.19,-163.16 71.03 2.11 22
133 04/29/2023 19:44:57 -81.19, 4.26 109.01 04/29/2023 19:44:34 -81.19, 4.15 108.99 1.94 23
134 04/29/2023 20:35:43 81.19, 171.36 71.01 04/29/2023 20:35:19 81.19, 171.44 71.01 1.29 24
135 04/29/2023 21:26:29 -81.19, -21.34 109.01 04/29/2023 21:26:04 -81.19, -21.26 109.00 1.44 25
136 04/29/2023 22:17:14 81.19, 146.15 70.96 04/29/2023 22:16:49 81.19, 146.03 70.99 2.06 25
137 04/29/2023 23:08:00 -81.19, -46.55 109.05 04/29/2023 23:07:34 -81.19, -46.66 109.02 1.92 26
138 04/29/2023 23:58:45 81.19, 120.94 70.92 04/29/2023 23:58:18 81.19, 121.01 70.92 1.37 27
139 04/30/2023 00:49:31 -81.19, -71.77 109.10 04/30/2023 00:49:03 -81.19, -71.69 109.09 1.47 28
140 04/30/2023 01:40:17 81.19, 95.34 70.93 04/30/2023 01:39:49 81.20, 95.22 70.96 2.02 28
141 04/30/2023 02:31:03 -81.19, -97.37 109.09 04/30/2023 02:30:34 -81.20, -97.47 109.06 1.91 29
142 04/30/2023 03:21:48 81.19, 70.12 70.88 04/30/2023 03:21:18 81.19, 70.20 70.89 1.39 30
143 04/30/2023 04:12:34 -81.19,-122.58 109.13 04/30/2023 04:12:03 -81.19,-122.49 109.13 1.47 31
144 04/30/2023 05:03:19 81.19, 44.91 70.84 04/30/2023 05:02:48 81.19, 44.80 70.87 1.96 31
145 04/30/2023 05:54:05 -81.19,-147.79 109.18 04/30/2023 05:53:33 -81.19,-147.90 109.15 1.87 32
146 04/30/2023 06:44:51 81.19, 19.31 70.85 04/30/2023 06:44:18 81.19, 19.39 70.85 1.44 33
147 04/30/2023 07:35:37 -81.19,-173.39 109.17 04/30/2023 07:35:03 -81.19,-173.30 109.16 1.49 34
148 04/30/2023 08:26:22 81.19, -5.91 70.80 04/30/2023 08:25:48 81.19, -6.01 70.83 1.85 34
149 04/30/2023 09:17:08 -81.19, 161.40 109.21 04/30/2023 09:16:33 -81.19, 161.29 109.18 1.79 35
150 04/30/2023 10:07:54 81.19, -31.51 70.81 04/30/2023 10:07:18 81.19, -31.42 70.82 1.51 36
151 04/30/2023 10:58:40 -81.19, 135.80 109.21 04/30/2023 10:58:03 -81.19, 135.89 109.20 1.54 37
152 04/30/2023 11:49:25 81.19, -56.72 70.77 04/30/2023 11:48:48 81.19, -56.83 70.80 1.76 37
153 04/30/2023 12:40:11 -81.19, 110.58 109.25 04/30/2023 12:39:33 -81.19, 110.48 109.21 1.73 38
154 04/30/2023 13:30:57 81.19, -82.32 70.77 04/30/2023 13:30:18 81.19, -82.23 70.78 1.60 39
155 04/30/2023 14:21:43 -81.19, 84.98 109.24 04/30/2023 14:21:03 -81.19, 85.08 109.23 1.60 40
156 04/30/2023 15:12:28 81.19,-107.54 70.73 04/30/2023 15:11:48 81.19,-107.64 70.77 1.68 40
157 04/30/2023 16:03:14 -81.19, 59.77 109.29 04/30/2023 16:02:33 -81.19, 59.67 109.25 1.68 41
158 04/30/2023 16:54:00 81.19,-133.14 70.74 04/30/2023 16:53:18 81.19,-133.04 70.75 1.71 42
159 04/30/2023 17:44:46 -81.19, 34.17 109.28 04/30/2023 17:44:03 -81.19, 34.27 109.27 1.68 43
160 04/30/2023 18:35:31 81.19,-158.35 70.69 04/30/2023 18:34:48 81.19,-158.45 70.73 1.62 43
161 04/30/2023 19:26:17 -81.19, 8.96 109.32 04/30/2023 19:25:33 -81.19, 8.86 109.28 1.65 44
162 04/30/2023 20:17:02 81.19, 176.43 70.65 04/30/2023 20:16:17 81.19, 176.53 70.66 1.80 45
163 04/30/2023 21:07:48 -81.19, -16.26 109.37 04/30/2023 21:07:02 -81.19, -16.16 109.36 1.74 46
164 04/30/2023 21:58:34 81.19, 150.83 70.66 04/30/2023 21:57:48 81.19, 150.74 70.70 1.58 46
165 04/30/2023 22:49:20 -81.19, -41.86 109.36 04/30/2023 22:48:33 -81.19, -41.95 109.32 1.64 47
166 04/30/2023 23:40:05 81.19, 125.61 70.61 04/30/2023 23:39:17 81.19, 125.72 70.62 1.84 48
167 05/01/2023 00:30:51 -81.19, -67.07 109.40 05/01/2023 00:30:02 -81.19, -66.97 109.39 1.75 49
168 05/01/2023 01:21:36 81.19, 100.40 70.57 05/01/2023 01:20:47 81.19, 100.31 70.61 1.52 49
169 05/01/2023 02:12:22 -81.19, -92.29 109.45 05/01/2023 02:11:32 -81.19, -92.38 109.41 1.60 50
170 05/01/2023 03:03:08 81.19, 74.80 70.58 05/01/2023 03:02:17 81.19, 74.91 70.59 1.90 51
171 05/01/2023 03:53:54 -81.19,-117.89 109.44 05/01/2023 03:53:02 -81.19,-117.78 109.42 1.78 52
172 05/01/2023 04:44:39 81.19, 49.58 70.53 05/01/2023 04:43:47 81.19, 49.50 70.57 1.40 52
173 05/01/2023 05:35:25 -81.19,-143.10 109.48 05/01/2023 05:34:32 -81.19,-143.19 109.44 1.51 53
174 05/01/2023 06:26:11 81.19, 23.98 70.54 05/01/2023 06:25:17 81.19, 24.10 70.56 1.98 54
175 05/01/2023 07:16:57 -81.19,-168.70 109.47 05/01/2023 07:16:02 -81.19,-168.59 109.46 1.83 55
176 05/01/2023 08:07:42 81.19, -1.23 70.50 05/01/2023 08:06:47 81.19, -1.31 70.54 1.29 55
177 05/01/2023 08:58:28 -81.19, 166.09 109.52 05/01/2023 08:57:32 -81.19, 166.00 109.48 1.44 56
178 05/01/2023 09:49:14 81.19, -26.84 70.51 05/01/2023 09:48:17 81.19, -26.72 70.52 2.07 57
179 05/01/2023 10:40:00 -81.19, 140.48 109.51 05/01/2023 10:39:02 -81.19, 140.60 109.49 1.89 58
180 05/01/2023 11:30:44 81.19, -52.05 70.46 05/01/2023 11:29:46 81.19, -52.12 70.51 1.20 58
181 05/01/2023 12:21:30 -81.19, 115.27 109.55 05/01/2023 12:20:31 -81.19, 115.19 109.51 1.38 59
182 05/01/2023 13:12:16 81.19, -77.65 70.47 05/01/2023 13:11:16 81.19, -77.53 70.49 2.18 60
183 05/01/2023 14:03:02 -81.19, 89.67 109.55 05/01/2023 14:02:01 -81.19, 89.78 109.53 1.97 61
184 05/01/2023 14:53:47 81.19,-102.87 70.43 05/01/2023 14:52:46 81.19,-102.93 70.47 1.15 61
185 05/01/2023 15:44:33 -81.19, 64.45 109.59 05/01/2023 15:43:31 -81.19, 64.38 109.54 1.35 62
186 05/01/2023 16:35:18 81.19,-128.08 70.38 05/01/2023 16:34:15 81.18,-127.96 70.40 2.27 63
187 05/01/2023 17:26:04 -81.19, 39.24 109.63 05/01/2023 17:25:00 -81.18, 39.35 109.62 2.04 64
188 05/01/2023 18:16:50 81.19,-153.69 70.39 05/01/2023 18:15:46 81.19,-153.75 70.44 1.12 64
189 05/01/2023 19:07:36 -81.19, 13.64 109.63 05/01/2023 19:06:31 -81.19, 13.57 109.58 1.34 65
190 05/01/2023 19:58:21 81.19,-178.90 70.35 05/01/2023 19:57:15 81.19,-178.77 70.37 2.32 66
191 05/01/2023 20:49:07 -81.19, -11.58 109.67 05/01/2023 20:48:00 -81.19, -11.46 109.65 2.06 67
192 05/01/2023 21:39:52 81.19, 155.88 70.31 05/01/2023 21:38:45 81.19, 155.82 70.35 1.05 67
193 05/01/2023 22:30:38 -81.19, -36.79 109.71 05/01/2023 22:29:30 -81.19, -36.86 109.67 1.30 68
194 05/01/2023 23:21:24 81.19, 130.28 70.31 05/01/2023 23:20:15 81.19, 130.42 70.33 2.40 69
195 05/02/2023 00:12:10 -81.19, -62.39 109.70 05/02/2023 00:11:00 -81.19, -62.27 109.68 2.10 70
196 05/02/2023 01:02:55 81.19, 105.06 70.27 05/02/2023 01:01:45 81.19, 105.01 70.32 0.90 70
197 05/02/2023 01:53:41 -81.19, -87.61 109.75 05/02/2023 01:52:30 -81.19, -87.68 109.70 1.19 71
198 05/02/2023 02:44:27 81.19, 79.46 70.28 05/02/2023 02:43:15 81.19, 79.61 70.30 2.48 72
199 05/02/2023 03:35:13 -81.19,-113.21 109.74 05/02/2023 03:34:00 -81.19,-113.08 109.72 2.16 73
200 05/02/2023 04:25:58 81.19, 54.24 70.24 05/02/2023 04:24:45 81.19, 54.20 70.28 0.78 73
201 05/02/2023 05:16:44 -81.19,-138.42 109.78 05/02/2023 05:15:30 -81.19,-138.49 109.73 1.10 74
202 05/02/2023 06:07:30 81.19, 28.64 70.24 05/02/2023 06:06:15 81.19, 28.79 70.27 2.59 75



Historial Predications of SNOs between FY3D and NOAA-20
